Time,TemperatureF,DewpointF,PressureIn,WindDirection,WindDirectionDegrees,WindSpeedMPH,WindSpeedGustMPH,Humidity,HourlyPrecipIn,Conditions,Clouds,dailyrainin,SoftwareType,DateUTC
2013-01-15 00:04:00,33.0,27.8,30.37,NW,322,0.0,3.0,81,0.00,,,0.00,Wunderground v.1.15,2013-01-15 08:04:00,
2013-01-15 00:09:00,33.0,28.1,30.37,NW,322,1.0,3.0,82,0.00,,,0.00,Wunderground v.1.15,2013-01-15 08:09:00,
2013-01-15 00:15:00,33.1,28.2,30.38,NNW,333,2.0,3.0,82,0.00,,,0.00,Wunderground v.1.15,2013-01-15 08:15:00,
2013-01-15 00:20:00,33.2,28.3,30.38,North,3,2.0,3.0,82,0.00,,,0.00,Wunderground v.1.15,2013-01-15 08:20:00,
2013-01-15 00:26:00,33.6,28.4,30.38,NNW,340,2.0,3.0,81,0.00,,,0.00,Wunderground v.1.15,2013-01-15 08:26:00,
2013-01-15 00:32:00,33.3,28.4,30.38,NNW,340,2.0,3.0,82,0.00,,,0.00,Wunderground v.1.15,2013-01-15 08:32:00,
2013-01-15 00:38:00,33.2,28.3,30.38,North,1,2.0,3.0,82,0.00,,,0.00,Wunderground v.1.15,2013-01-15 08:38:00,
2013-01-15 00:43:00,33.6,28.4,30.38,North,8,2.0,3.0,81,0.00,,,0.00,Wunderground v.1.15,2013-01-15 08:43:00,
2013-01-15 00:48:00,33.3,28.1,30.38,North,8,2.0,3.0,81,0.00,,,0.00,Wunderground v.1.15,2013-01-15 08:48:00,
2013-01-15 00:54:00,33.3,28.1,30.38,North,356,2.0,3.0,81,0.00,,,0.00,Wunderground v.1.15,2013-01-15 08:54:00,
2013-01-15 01:00:00,33.6,28.1,30.38,NNE,20,2.0,3.0,80,0.00,,,0.00,Wunderground v.1.15,2013-01-15 09:00:00,
2013-01-15 01:05:00,33.4,27.9,30.38,NNW,327,2.0,3.0,80,0.00,,,0.00,Wunderground v.1.15,2013-01-15 09:05:00,
2013-01-15 01:10:00,33.3,28.1,30.38,NNW,340,2.0,3.0,81,0.00,,,0.00,Wunderground v.1.15,2013-01-15 09:10:00,
2013-01-15 01:16:00,33.1,28.2,30.38,NNW,342,2.0,3.0,82,0.00,,,0.00,Wunderground v.1.15,2013-01-15 09:16:00,
2013-01-15 01:22:00,32.9,28.0,30.38,NNW,342,1.0,3.0,82,0.00,,,0.00,Wunderground v.1.15,2013-01-15 09:22:00,
2013-01-15 01:28:00,32.7,27.8,30.38,NNW,342,1.0,3.0,82,0.00,,,0.00,Wunderground v.1.15,2013-01-15 09:28:00,
2013-01-15 01:34:00,32.7,28.1,30.38,NNW,342,1.0,3.0,83,0.00,,,0.00,Wunderground v.1.15,2013-01-15 09:34:00,
2013-01-15 01:40:00,32.5,27.9,30.39,NNW,342,1.0,3.0,83,0.00,,,0.00,Wunderground v.1.15,2013-01-15 09:40:00,
2013-01-15 01:46:00,32.5,27.9,30.39,NNW,342,1.0,3.0,83,0.00,,,0.00,Wunderground v.1.15,2013-01-15 09:46:00,
2013-01-15 01:52:00,32.1,27.5,30.40,NNW,335,1.0,3.0,83,0.00,,,0.00,Wunderground v.1.15,2013-01-15 09:52:00,
2013-01-15 01:58:00,32.3,27.7,30.40,NNW,335,1.0,3.0,83,0.00,,,0.00,Wunderground v.1.15,2013-01-15 09:58:00,
2013-01-15 02:04:00,32.6,27.7,30.40,NNW,335,0.0,3.0,82,0.00,,,0.00,Wunderground v.1.15,2013-01-15 10:04:00,
2013-01-15 02:09:00,32.9,27.7,30.41,NNW,335,1.0,3.0,81,0.00,,,0.00,Wunderground v.1.15,2013-01-15 10:09:00,
2013-01-15 02:14:00,32.9,27.7,30.41,NNW,335,1.0,3.0,81,0.00,,,0.00,Wunderground v.1.15,2013-01-15 10:14:00,
2013-01-15 02:20:00,33.0,27.5,30.40,NNW,334,1.0,3.0,80,0.00,,,0.00,Wunderground v.1.15,2013-01-15 10:20:00,
2013-01-15 02:26:00,32.9,27.7,30.41,NNW,335,2.0,3.0,81,0.00,,,0.00,Wunderground v.1.15,2013-01-15 10:26:00,
2013-01-15 02:32:00,32.7,27.8,30.41,NNW,335,2.0,3.0,82,0.00,,,0.00,Wunderground v.1.15,2013-01-15 10:32:00,
2013-01-15 02:37:00,32.3,27.7,30.41,NNW,335,2.0,3.0,83,0.00,,,0.00,Wunderground v.1.15,2013-01-15 10:37:00,
2013-01-15 02:42:00,32.0,27.7,30.41,North,349,2.0,3.0,84,0.00,,,0.00,Wunderground v.1.15,2013-01-15 10:42:00,
2013-01-15 02:48:00,31.6,27.3,30.41,North,353,2.0,3.0,84,0.00,,,0.00,Wunderground v.1.15,2013-01-15 10:48:00,
2013-01-15 02:53:00,31.8,27.8,30.42,North,352,1.0,3.0,85,0.00,,,0.00,Wunderground v.1.15,2013-01-15 10:53:00,
2013-01-15 02:58:00,31.7,27.4,30.42,NW,323,2.0,3.0,84,0.00,,,0.00,Wunderground v.1.15,2013-01-15 10:58:00,
2013-01-15 03:03:00,31.7,27.7,30.42,NW,323,1.0,3.0,85,0.00,,,0.00,Wunderground v.1.15,2013-01-15 11:03:00,
2013-01-15 03:09:00,31.7,27.7,30.42,NW,323,1.0,3.0,85,0.00,,,0.00,Wunderground v.1.15,2013-01-15 11:09:00,
2013-01-15 03:15:00,31.5,27.2,30.42,NW,323,1.0,3.0,84,0.00,,,0.00,Wunderground v.1.15,2013-01-15 11:15:00,
2013-01-15 03:21:00,31.3,27.3,30.41,NW,323,1.0,3.0,85,0.00,,,0.00,Wunderground v.1.15,2013-01-15 11:21:00,
2013-01-15 03:27:00,31.1,27.4,30.41,NW,323,1.0,3.0,86,0.00,,,0.00,Wunderground v.1.15,2013-01-15 11:27:00,
2013-01-15 03:33:00,30.9,27.2,30.41,NNW,328,2.0,3.0,86,0.00,,,0.00,Wunderground v.1.15,2013-01-15 11:33:00,
2013-01-15 03:39:00,30.7,27.0,30.41,NNW,337,2.0,3.0,86,0.00,,,0.00,Wunderground v.1.15,2013-01-15 11:39:00,
2013-01-15 03:45:00,30.6,27.2,30.41,North,352,2.0,3.0,87,0.00,,,0.00,Wunderground v.1.15,2013-01-15 11:45:00,
2013-01-15 03:51:00,30.9,27.5,30.41,NNW,347,2.0,3.0,87,0.00,,,0.00,Wunderground v.1.15,2013-01-15 11:51:00,
2013-01-15 03:57:00,31.0,27.3,30.41,NNW,328,2.0,3.0,86,0.00,,,0.00,Wunderground v.1.15,2013-01-15 11:57:00,
2013-01-15 04:03:00,31.1,27.4,30.41,NW,326,2.0,3.0,86,0.00,,,0.00,Wunderground v.1.15,2013-01-15 12:03:00,
2013-01-15 04:09:00,31.3,27.6,30.41,NNW,333,2.0,3.0,86,0.00,,,0.00,Wunderground v.1.15,2013-01-15 12:09:00,
2013-01-15 04:15:00,31.2,27.5,30.41,NNW,333,1.0,3.0,86,0.00,,,0.00,Wunderground v.1.15,2013-01-15 12:15:00,
2013-01-15 04:20:00,31.2,27.5,30.41,NNW,333,1.0,3.0,86,0.00,,,0.00,Wunderground v.1.15,2013-01-15 12:20:00,
2013-01-15 04:26:00,31.2,27.5,30.40,NNW,333,1.0,3.0,86,0.00,,,0.00,Wunderground v.1.15,2013-01-15 12:26:00,
2013-01-15 04:32:00,31.1,27.4,30.40,NNW,333,1.0,3.0,86,0.00,,,0.00,Wunderground v.1.15,2013-01-15 12:32:00,
2013-01-15 04:37:00,30.9,27.2,30.41,NNW,333,1.0,3.0,86,0.00,,,0.00,Wunderground v.1.15,2013-01-15 12:37:00,
2013-01-15 04:43:00,30.7,27.0,30.41,NNW,333,1.0,3.0,86,0.00,,,0.00,Wunderground v.1.15,2013-01-15 12:43:00,
2013-01-15 04:49:00,30.5,26.8,30.41,NNW,333,1.0,3.0,86,0.00,,,0.00,Wunderground v.1.15,2013-01-15 12:49:00,
2013-01-15 04:54:00,30.4,27.0,30.41,NNW,333,1.0,3.0,87,0.00,,,0.00,Wunderground v.1.15,2013-01-15 12:54:00,
2013-01-15 04:59:00,30.2,26.8,30.40,NNW,333,1.0,3.0,87,0.00,,,0.00,Wunderground v.1.15,2013-01-15 12:59:00,
2013-01-15 05:05:00,30.1,27.0,30.41,NNW,333,1.0,3.0,88,0.00,,,0.00,Wunderground v.1.15,2013-01-15 13:05:00,
2013-01-15 05:10:00,30.0,26.9,30.41,NNW,333,1.0,1.0,88,0.00,,,0.00,Wunderground v.1.15,2013-01-15 13:10:00,
2013-01-15 05:16:00,30.2,27.1,30.41,NNW,333,1.0,3.0,88,0.00,,,0.00,Wunderground v.1.15,2013-01-15 13:16:00,
2013-01-15 05:22:00,30.3,27.2,30.41,NNW,333,1.0,3.0,88,0.00,,,0.00,Wunderground v.1.15,2013-01-15 13:22:00,
2013-01-15 05:28:00,30.4,27.3,30.41,NNW,333,1.0,3.0,88,0.00,,,0.00,Wunderground v.1.15,2013-01-15 13:28:00,
2013-01-15 05:34:00,30.5,27.4,30.41,NNW,333,1.0,3.0,88,0.00,,,0.00,Wunderground v.1.15,2013-01-15 13:34:00,
2013-01-15 05:39:00,30.4,27.3,30.41,NNW,333,1.0,3.0,88,0.00,,,0.00,Wunderground v.1.15,2013-01-15 13:39:00,
2013-01-15 05:44:00,30.4,27.3,30.41,NNW,333,1.0,3.0,88,0.00,,,0.00,Wunderground v.1.15,2013-01-15 13:44:00,
2013-01-15 05:50:00,30.4,27.3,30.41,NNW,335,2.0,3.0,88,0.00,,,0.00,Wunderground v.1.15,2013-01-15 13:50:00,
2013-01-15 05:56:00,30.4,27.3,30.41,NNW,335,1.0,3.0,88,0.00,,,0.00,Wunderground v.1.15,2013-01-15 13:56:00,
2013-01-15 06:02:00,30.4,27.3,30.41,NNW,335,1.0,3.0,88,0.00,,,0.00,Wunderground v.1.15,2013-01-15 14:02:00,
2013-01-15 06:07:00,30.4,27.3,30.41,NNW,333,1.0,3.0,88,0.00,,,0.00,Wunderground v.1.15,2013-01-15 14:07:00,
2013-01-15 06:12:00,30.5,27.6,30.41,NNW,333,1.0,3.0,89,0.00,,,0.00,Wunderground v.1.15,2013-01-15 14:12:00,
2013-01-15 06:17:00,30.4,27.3,30.41,NNW,333,1.0,3.0,88,0.00,,,0.00,Wunderground v.1.15,2013-01-15 14:17:00,
2013-01-15 06:23:00,30.1,27.0,30.41,NNW,333,1.0,3.0,88,0.00,,,0.00,Wunderground v.1.15,2013-01-15 14:23:00,
2013-01-15 06:29:00,30.1,27.3,30.42,NNW,347,2.0,3.0,89,0.00,,,0.00,Wunderground v.1.15,2013-01-15 14:29:00,
2013-01-15 06:35:00,30.4,27.5,30.41,NNW,348,2.0,3.0,89,0.00,,,0.00,Wunderground v.1.15,2013-01-15 14:35:00,
2013-01-15 06:41:00,30.3,27.4,30.41,NNW,333,1.0,3.0,89,0.00,,,0.00,Wunderground v.1.15,2013-01-15 14:41:00,
2013-01-15 06:46:00,30.4,27.5,30.41,NNW,333,2.0,3.0,89,0.00,,,0.00,Wunderground v.1.15,2013-01-15 14:46:00,
2013-01-15 06:52:00,30.4,27.3,30.41,NNW,333,2.0,3.0,88,0.00,,,0.00,Wunderground v.1.15,2013-01-15 14:52:00,
2013-01-15 06:58:00,30.6,27.7,30.42,NNW,333,2.0,3.0,89,0.00,,,0.00,Wunderground v.1.15,2013-01-15 14:58:00,
2013-01-15 07:03:00,30.7,27.6,30.42,NNW,333,2.0,3.0,88,0.00,,,0.00,Wunderground v.1.15,2013-01-15 15:03:00,
2013-01-15 07:09:00,30.7,27.8,30.42,NNW,333,2.0,3.0,89,0.00,,,0.00,Wunderground v.1.15,2013-01-15 15:09:00,
2013-01-15 07:15:00,30.8,27.9,30.42,NNW,333,2.0,3.0,89,0.00,,,0.00,Wunderground v.1.15,2013-01-15 15:15:00,
2013-01-15 07:21:00,30.8,27.9,30.42,NNW,333,1.0,3.0,89,0.00,,,0.00,Wunderground v.1.15,2013-01-15 15:21:00,
2013-01-15 07:26:00,30.8,27.9,30.42,NNW,333,0.0,3.0,89,0.00,,,0.00,Wunderground v.1.15,2013-01-15 15:26:00,
2013-01-15 07:32:00,30.9,28.0,30.42,NNW,333,0.0,3.0,89,0.00,,,0.00,Wunderground v.1.15,2013-01-15 15:32:00,
2013-01-15 07:38:00,31.0,27.9,30.42,NNW,333,1.0,3.0,88,0.00,,,0.00,Wunderground v.1.15,2013-01-15 15:38:00,
2013-01-15 07:44:00,31.0,27.9,30.42,NNW,332,1.0,3.0,88,0.00,,,0.00,Wunderground v.1.15,2013-01-15 15:44:00,
2013-01-15 07:50:00,31.1,28.0,30.43,NNW,333,1.0,1.0,88,0.00,,,0.00,Wunderground v.1.15,2013-01-15 15:50:00,
2013-01-15 07:55:00,31.0,27.9,30.43,NNW,333,1.0,3.0,88,0.00,,,0.00,Wunderground v.1.15,2013-01-15 15:55:00,
2013-01-15 08:00:00,31.2,28.1,30.43,NNW,333,1.0,3.0,88,0.00,,,0.00,Wunderground v.1.15,2013-01-15 16:00:00,
2013-01-15 08:06:00,31.4,28.3,30.43,NNW,333,1.0,3.0,88,0.00,,,0.00,Wunderground v.1.15,2013-01-15 16:06:00,
2013-01-15 08:11:00,31.7,28.6,30.43,NNW,328,1.0,3.0,88,0.00,,,0.00,Wunderground v.1.15,2013-01-15 16:11:00,
2013-01-15 08:17:00,32.1,28.9,30.44,NNW,328,1.0,3.0,88,0.00,,,0.00,Wunderground v.1.15,2013-01-15 16:17:00,
2013-01-15 08:23:00,32.3,29.1,30.44,NNW,328,0.0,3.0,88,0.00,,,0.00,Wunderground v.1.15,2013-01-15 16:23:00,
2013-01-15 08:29:00,32.6,29.2,30.44,NW,326,1.0,3.0,87,0.00,,,0.00,Wunderground v.1.15,2013-01-15 16:29:00,
2013-01-15 08:35:00,33.1,29.4,30.44,NW,326,1.0,3.0,86,0.00,,,0.00,Wunderground v.1.15,2013-01-15 16:35:00,
2013-01-15 08:41:00,33.4,29.4,30.44,NW,326,1.0,3.0,85,0.00,,,0.00,Wunderground v.1.15,2013-01-15 16:41:00,
2013-01-15 08:47:00,33.8,29.8,30.44,NNW,327,0.0,3.0,85,0.00,,,0.00,Wunderground v.1.15,2013-01-15 16:47:00,
2013-01-15 08:53:00,34.3,30.3,30.45,NW,326,1.0,3.0,85,0.00,,,0.00,Wunderground v.1.15,2013-01-15 16:53:00,
2013-01-15 08:59:00,34.7,30.7,30.45,NNW,327,0.0,3.0,85,0.00,,,0.00,Wunderground v.1.15,2013-01-15 16:59:00,
2013-01-15 09:05:00,35.1,31.0,30.45,NW,326,0.0,3.0,85,0.00,,,0.00,Wunderground v.1.15,2013-01-15 17:05:00,
2013-01-15 09:11:00,35.6,31.2,30.45,NW,326,0.0,3.0,84,0.00,,,0.00,Wunderground v.1.15,2013-01-15 17:11:00,
2013-01-15 09:16:00,36.0,31.6,30.45,NNW,327,0.0,3.0,84,0.00,,,0.00,Wunderground v.1.15,2013-01-15 17:16:00,
2013-01-15 09:21:00,36.5,31.8,30.45,NW,326,0.0,3.0,83,0.00,,,0.00,Wunderground v.1.15,2013-01-15 17:21:00,
2013-01-15 09:27:00,37.7,33.0,30.45,NNW,327,0.0,3.0,83,0.00,,,0.00,Wunderground v.1.15,2013-01-15 17:27:00,
2013-01-15 09:33:00,38.9,32.3,30.45,NW,326,0.0,3.0,77,0.00,,,0.00,Wunderground v.1.15,2013-01-15 17:33:00,
2013-01-15 09:38:00,39.7,32.4,30.45,WNW,294,1.0,3.0,75,0.00,,,0.00,Wunderground v.1.15,2013-01-15 17:38:00,
2013-01-15 09:44:00,40.7,33.1,30.45,SSW,212,1.0,3.0,74,0.00,,,0.00,Wunderground v.1.15,2013-01-15 17:44:00,
2013-01-15 09:49:00,41.5,33.5,30.45,SSW,212,0.0,3.0,73,0.00,,,0.00,Wunderground v.1.15,2013-01-15 17:49:00,
2013-01-15 09:54:00,42.2,33.5,30.45,SSW,211,0.0,3.0,71,0.00,,,0.00,Wunderground v.1.15,2013-01-15 17:54:00,
2013-01-15 10:00:00,42.4,33.3,30.45,WSW,244,0.0,3.0,70,0.00,,,0.00,Wunderground v.1.15,2013-01-15 18:00:00,
2013-01-15 10:06:00,42.5,33.4,30.45,SSW,193,2.0,3.0,70,0.00,,,0.00,Wunderground v.1.15,2013-01-15 18:06:00,
2013-01-15 10:12:00,42.7,33.2,30.45,SSW,200,2.0,3.0,69,0.00,,,0.00,Wunderground v.1.15,2013-01-15 18:12:00,
2013-01-15 10:18:00,43.3,33.4,30.45,South,188,1.0,3.0,68,0.00,,,0.00,Wunderground v.1.15,2013-01-15 18:18:00,
2013-01-15 10:23:00,43.8,33.2,30.45,SSW,201,1.0,6.0,66,0.00,,,0.00,Wunderground v.1.15,2013-01-15 18:23:00,
2013-01-15 10:29:00,43.4,32.8,30.45,SSE,154,3.0,6.0,66,0.00,,,0.00,Wunderground v.1.15,2013-01-15 18:29:00,
2013-01-15 10:34:00,43.2,32.2,30.45,South,180,4.0,5.0,65,0.00,,,0.00,Wunderground v.1.15,2013-01-15 18:34:00,
2013-01-15 10:39:00,43.2,32.6,30.45,South,189,3.0,5.0,66,0.00,,,0.00,Wunderground v.1.15,2013-01-15 18:39:00,
2013-01-15 10:45:00,43.2,32.2,30.44,SSW,195,3.0,3.0,65,0.00,,,0.00,Wunderground v.1.15,2013-01-15 18:45:00,
2013-01-15 10:51:00,43.5,32.5,30.44,WSW,244,3.0,4.0,65,0.00,,,0.00,Wunderground v.1.15,2013-01-15 18:51:00,
2013-01-15 10:57:00,43.7,32.3,30.44,SSW,194,3.0,4.0,64,0.00,,,0.00,Wunderground v.1.15,2013-01-15 18:57:00,
2013-01-15 11:02:00,44.1,32.7,30.44,SW,231,2.0,3.0,64,0.00,,,0.00,Wunderground v.1.15,2013-01-15 19:02:00,
2013-01-15 11:07:00,44.4,33.0,30.44,SW,221,2.0,3.0,64,0.00,,,0.00,Wunderground v.1.15,2013-01-15 19:07:00,
2013-01-15 11:12:00,44.6,32.4,30.44,SSW,202,2.0,3.0,62,0.00,,,0.00,Wunderground v.1.15,2013-01-15 19:12:00,
2013-01-15 11:18:00,45.1,32.4,30.43,South,188,2.0,3.0,61,0.00,,,0.00,Wunderground v.1.15,2013-01-15 19:18:00,
2013-01-15 11:24:00,45.6,32.9,30.43,SW,221,1.0,3.0,61,0.00,,,0.00,Wunderground v.1.15,2013-01-15 19:24:00,
2013-01-15 11:30:00,46.5,33.8,30.43,SSW,213,1.0,3.0,61,0.00,,,0.00,Wunderground v.1.15,2013-01-15 19:30:00,
2013-01-15 11:36:00,47.6,33.5,30.43,South,186,1.0,3.0,58,0.00,,,0.00,Wunderground v.1.15,2013-01-15 19:36:00,
2013-01-15 11:42:00,47.9,34.3,30.42,SSE,162,2.0,3.0,59,0.00,,,0.00,Wunderground v.1.15,2013-01-15 19:42:00,
2013-01-15 11:48:00,48.0,33.5,30.42,SW,224,3.0,5.0,57,0.00,,,0.00,Wunderground v.1.15,2013-01-15 19:48:00,
2013-01-15 11:54:00,47.9,32.9,30.42,SE,146,4.0,5.0,56,0.00,,,0.00,Wunderground v.1.15,2013-01-15 19:54:00,
2013-01-15 12:00:00,48.0,32.1,30.41,SW,220,4.0,4.0,54,0.00,,,0.00,Wunderground v.1.15,2013-01-15 20:00:00,
2013-01-15 12:06:00,48.1,32.7,30.41,SW,236,4.0,5.0,55,0.00,,,0.00,Wunderground v.1.15,2013-01-15 20:06:00,
2013-01-15 12:11:00,48.1,33.1,30.41,SSE,168,4.0,4.0,56,0.00,,,0.00,Wunderground v.1.15,2013-01-15 20:11:00,
2013-01-15 12:16:00,47.9,32.9,30.41,South,183,4.0,5.0,56,0.00,,,0.00,Wunderground v.1.15,2013-01-15 20:16:00,
2013-01-15 12:21:00,48.0,33.5,30.40,SW,219,3.0,4.0,57,0.00,,,0.00,Wunderground v.1.15,2013-01-15 20:21:00,
2013-01-15 12:27:00,48.1,33.6,30.40,SSW,207,3.0,5.0,57,0.00,,,0.00,Wunderground v.1.15,2013-01-15 20:27:00,
2013-01-15 12:33:00,48.2,33.7,30.40,WSW,258,3.0,4.0,57,0.00,,,0.00,Wunderground v.1.15,2013-01-15 20:33:00,
2013-01-15 12:39:00,48.3,34.2,30.39,SSW,195,3.0,4.0,58,0.00,,,0.00,Wunderground v.1.15,2013-01-15 20:39:00,
2013-01-15 12:44:00,48.4,33.4,30.39,SSW,212,3.0,4.0,56,0.00,,,0.00,Wunderground v.1.15,2013-01-15 20:44:00,
2013-01-15 12:50:00,48.4,34.3,30.39,WSW,251,3.0,4.0,58,0.00,,,0.00,Wunderground v.1.15,2013-01-15 20:50:00,
2013-01-15 12:55:00,47.9,34.3,30.39,SSW,210,3.0,4.0,59,0.00,,,0.00,Wunderground v.1.15,2013-01-15 20:55:00,
2013-01-15 13:01:00,48.0,34.8,30.39,SSW,202,3.0,3.0,60,0.00,,,0.00,Wunderground v.1.15,2013-01-15 21:01:00,
2013-01-15 13:06:00,47.9,34.7,30.39,WSW,246,3.0,3.0,60,0.00,,,0.00,Wunderground v.1.15,2013-01-15 21:06:00,
2013-01-15 13:11:00,47.4,34.2,30.39,WSW,252,3.0,3.0,60,0.00,,,0.00,Wunderground v.1.15,2013-01-15 21:11:00,
2013-01-15 13:16:00,47.5,34.7,30.39,SW,214,3.0,4.0,61,0.00,,,0.00,Wunderground v.1.15,2013-01-15 21:16:00,
2013-01-15 13:21:00,47.6,34.8,30.39,WSW,241,3.0,3.0,61,0.00,,,0.00,Wunderground v.1.15,2013-01-15 21:21:00,
2013-01-15 13:27:00,47.6,34.8,30.38,SW,229,3.0,4.0,61,0.00,,,0.00,Wunderground v.1.15,2013-01-15 21:27:00,
2013-01-15 13:32:00,48.4,34.7,30.38,WSW,245,1.0,3.0,59,0.00,,,0.00,Wunderground v.1.15,2013-01-15 21:32:00,
2013-01-15 13:38:00,49.2,33.7,30.38,SSW,198,1.0,3.0,55,0.00,,,0.00,Wunderground v.1.15,2013-01-15 21:38:00,
2013-01-15 13:43:00,49.3,35.1,30.38,SW,217,2.0,3.0,58,0.00,,,0.00,Wunderground v.1.15,2013-01-15 21:43:00,
2013-01-15 13:49:00,49.5,35.8,30.38,South,191,2.0,4.0,59,0.00,,,0.00,Wunderground v.1.15,2013-01-15 21:49:00,
2013-01-15 13:55:00,49.9,34.8,30.38,SSE,160,3.0,4.0,56,0.00,,,0.00,Wunderground v.1.15,2013-01-15 21:55:00,
2013-01-15 14:01:00,50.2,33.7,30.38,South,176,2.0,4.0,53,0.00,,,0.00,Wunderground v.1.15,2013-01-15 22:01:00,
2013-01-15 14:06:00,50.4,33.4,30.38,South,190,3.0,4.0,52,0.00,,,0.00,Wunderground v.1.15,2013-01-15 22:06:00,
2013-01-15 14:11:00,50.7,34.2,30.38,SSW,200,3.0,5.0,53,0.00,,,0.00,Wunderground v.1.15,2013-01-15 22:11:00,
2013-01-15 14:17:00,49.4,35.7,30.38,SW,214,4.0,6.0,59,0.00,,,0.00,Wunderground v.1.15,2013-01-15 22:17:00,
2013-01-15 14:22:00,49.2,35.0,30.38,SW,231,4.0,4.0,58,0.00,,,0.00,Wunderground v.1.15,2013-01-15 22:22:00,
2013-01-15 14:28:00,49.7,35.9,30.38,SW,217,3.0,4.0,59,0.00,,,0.00,Wunderground v.1.15,2013-01-15 22:28:00,
2013-01-15 14:34:00,49.9,35.7,30.38,SSW,200,3.0,4.0,58,0.00,,,0.00,Wunderground v.1.15,2013-01-15 22:34:00,
2013-01-15 14:40:00,50.8,35.2,30.38,SSW,198,2.0,2.0,55,0.00,,,0.00,Wunderground v.1.15,2013-01-15 22:40:00,
2013-01-15 14:45:00,51.5,35.4,30.37,SSW,206,2.0,3.0,54,0.00,,,0.00,Wunderground v.1.15,2013-01-15 22:45:00,
2013-01-15 14:51:00,52.2,35.1,30.37,South,184,2.0,3.0,52,0.00,,,0.00,Wunderground v.1.15,2013-01-15 22:51:00,
2013-01-15 14:57:00,51.9,32.8,30.37,SW,233,2.0,5.0,48,0.00,,,0.00,Wunderground v.1.15,2013-01-15 22:57:00,
2013-01-15 15:03:00,51.8,36.1,30.37,SW,227,3.0,4.0,55,0.00,,,0.00,Wunderground v.1.15,2013-01-15 23:03:00,
2013-01-15 15:09:00,52.0,36.8,30.37,SW,229,3.0,4.0,56,0.00,,,0.00,Wunderground v.1.15,2013-01-15 23:09:00,
2013-01-15 15:14:00,52.4,35.8,30.37,SSW,195,2.0,3.0,53,0.00,,,0.00,Wunderground v.1.15,2013-01-15 23:14:00,
2013-01-15 15:20:00,52.0,33.9,30.37,WSW,246,3.0,5.0,50,0.00,,,0.00,Wunderground v.1.15,2013-01-15 23:20:00,
2013-01-15 15:25:00,51.7,34.6,30.37,SW,214,4.0,5.0,52,0.00,,,0.00,Wunderground v.1.15,2013-01-15 23:25:00,
2013-01-15 15:31:00,52.2,34.1,30.37,SW,217,3.0,4.0,50,0.00,,,0.00,Wunderground v.1.15,2013-01-15 23:31:00,
2013-01-15 15:37:00,52.2,33.1,30.37,SW,224,3.0,5.0,48,0.00,,,0.00,Wunderground v.1.15,2013-01-15 23:37:00,
2013-01-15 15:43:00,51.8,31.1,30.37,WSW,238,4.0,6.0,45,0.00,,,0.00,Wunderground v.1.15,2013-01-15 23:43:00,
2013-01-15 15:49:00,51.8,29.4,30.37,SW,229,4.0,6.0,42,0.00,,,0.00,Wunderground v.1.15,2013-01-15 23:49:00,
2013-01-15 15:54:00,52.0,27.8,30.37,SW,217,4.0,4.0,39,0.00,,,0.00,Wunderground v.1.15,2013-01-15 23:54:00,
2013-01-15 16:00:00,52.0,28.4,30.38,WSW,244,4.0,4.0,40,0.00,,,0.00,Wunderground v.1.15,2013-01-16 00:00:00,
2013-01-15 16:06:00,52.0,32.4,30.38,WSW,241,4.0,6.0,47,0.00,,,0.00,Wunderground v.1.15,2013-01-16 00:06:00,
2013-01-15 16:12:00,51.9,32.3,30.37,SW,229,4.0,5.0,47,0.00,,,0.00,Wunderground v.1.15,2013-01-16 00:12:00,
2013-01-15 16:18:00,52.2,32.0,30.37,SW,219,3.0,5.0,46,0.00,,,0.00,Wunderground v.1.15,2013-01-16 00:18:00,
2013-01-15 16:24:00,52.2,32.6,30.37,SW,224,2.0,4.0,47,0.00,,,0.00,Wunderground v.1.15,2013-01-16 00:24:00,
2013-01-15 16:30:00,51.7,34.6,30.37,WSW,247,3.0,3.0,52,0.00,,,0.00,Wunderground v.1.15,2013-01-16 00:30:00,
2013-01-15 16:36:00,51.8,35.7,30.36,SSW,213,2.0,4.0,54,0.00,,,0.00,Wunderground v.1.15,2013-01-16 00:36:00,
2013-01-15 16:42:00,51.8,35.7,30.36,SW,229,1.0,3.0,54,0.00,,,0.00,Wunderground v.1.15,2013-01-16 00:42:00,
2013-01-15 16:48:00,51.6,34.5,30.37,SW,217,1.0,3.0,52,0.00,,,0.00,Wunderground v.1.15,2013-01-16 00:48:00,
2013-01-15 16:53:00,51.5,35.4,30.37,SW,217,0.0,3.0,54,0.00,,,0.00,Wunderground v.1.15,2013-01-16 00:53:00,
2013-01-15 16:59:00,50.4,34.8,30.36,SW,217,0.0,3.0,55,0.00,,,0.00,Wunderground v.1.15,2013-01-16 00:59:00,
2013-01-15 17:05:00,49.2,35.0,30.36,SW,217,0.0,3.0,58,0.00,,,0.00,Wunderground v.1.15,2013-01-16 01:05:00,
2013-01-15 17:10:00,48.7,35.0,30.36,SW,217,0.0,3.0,59,0.00,,,0.00,Wunderground v.1.15,2013-01-16 01:10:00,
2013-01-15 17:16:00,47.9,35.1,30.36,SW,217,0.0,3.0,61,0.00,,,0.00,Wunderground v.1.15,2013-01-16 01:16:00,
2013-01-15 17:22:00,47.1,34.7,30.36,SW,217,0.0,3.0,62,0.00,,,0.00,Wunderground v.1.15,2013-01-16 01:22:00,
2013-01-15 17:28:00,46.4,34.5,30.37,SW,217,0.0,3.0,63,0.00,,,0.00,Wunderground v.1.15,2013-01-16 01:28:00,
2013-01-15 17:33:00,45.9,34.0,30.37,ENE,70,1.0,3.0,63,0.00,,,0.00,Wunderground v.1.15,2013-01-16 01:33:00,
2013-01-15 17:38:00,45.5,34.0,30.37,ENE,69,2.0,3.0,64,0.00,,,0.00,Wunderground v.1.15,2013-01-16 01:38:00,
2013-01-15 17:44:00,45.1,33.6,30.37,ENE,68,1.0,3.0,64,0.00,,,0.00,Wunderground v.1.15,2013-01-16 01:44:00,
2013-01-15 17:50:00,44.6,33.6,30.38,ENE,69,0.0,3.0,65,0.00,,,0.00,Wunderground v.1.15,2013-01-16 01:50:00,
2013-01-15 17:55:00,44.3,33.3,30.38,ENE,68,0.0,3.0,65,0.00,,,0.00,Wunderground v.1.15,2013-01-16 01:55:00,
2013-01-15 18:00:00,44.1,33.5,30.38,ENE,63,1.0,3.0,66,0.00,,,0.00,Wunderground v.1.15,2013-01-16 02:00:00,
2013-01-15 18:05:00,43.9,33.6,30.38,NNW,336,2.0,3.0,67,0.00,,,0.00,Wunderground v.1.15,2013-01-16 02:05:00,
2013-01-15 18:11:00,43.7,33.5,30.38,NE,39,2.0,3.0,67,0.00,,,0.00,Wunderground v.1.15,2013-01-16 02:11:00,
2013-01-15 18:17:00,43.5,33.6,30.37,NE,44,2.0,3.0,68,0.00,,,0.00,Wunderground v.1.15,2013-01-16 02:17:00,
2013-01-15 18:23:00,43.1,33.6,30.37,North,11,2.0,3.0,69,0.00,,,0.00,Wunderground v.1.15,2013-01-16 02:23:00,
2013-01-15 18:28:00,42.7,33.9,30.37,NNW,340,1.0,3.0,71,0.00,,,0.00,Wunderground v.1.15,2013-01-16 02:28:00,
2013-01-15 18:33:00,42.3,33.9,30.38,NNW,340,1.0,3.0,72,0.00,,,0.00,Wunderground v.1.15,2013-01-16 02:33:00,
2013-01-15 18:39:00,41.9,33.5,30.38,NNW,341,0.0,3.0,72,0.00,,,0.00,Wunderground v.1.15,2013-01-16 02:39:00,
2013-01-15 18:44:00,42.0,33.6,30.38,NE,55,1.0,3.0,72,0.00,,,0.00,Wunderground v.1.15,2013-01-16 02:44:00,
2013-01-15 18:49:00,42.2,33.5,30.38,NNW,344,2.0,3.0,71,0.00,,,0.00,Wunderground v.1.15,2013-01-16 02:49:00,
2013-01-15 18:54:00,42.5,33.4,30.38,NNW,343,2.0,3.0,70,0.00,,,0.00,Wunderground v.1.15,2013-01-16 02:54:00,
2013-01-15 19:00:00,42.2,33.1,30.38,NNW,344,1.0,3.0,70,0.00,,,0.00,Wunderground v.1.15,2013-01-16 03:00:00,
2013-01-15 19:06:00,41.7,33.0,30.38,NE,38,1.0,3.0,71,0.00,,,0.00,Wunderground v.1.15,2013-01-16 03:06:00,
2013-01-15 19:12:00,41.3,32.6,30.38,NNE,32,2.0,3.0,71,0.00,,,0.00,Wunderground v.1.15,2013-01-16 03:12:00,
2013-01-15 19:18:00,41.5,32.8,30.38,NNE,17,1.0,3.0,71,0.00,,,0.00,Wunderground v.1.15,2013-01-16 03:18:00,
2013-01-15 19:23:00,41.6,32.9,30.38,NNE,24,2.0,3.0,71,0.00,,,0.00,Wunderground v.1.15,2013-01-16 03:23:00,
2013-01-15 19:29:00,41.2,32.9,30.38,NNW,340,1.0,3.0,72,0.00,,,0.00,Wunderground v.1.15,2013-01-16 03:29:00,
2013-01-15 19:35:00,40.8,32.8,30.38,NNW,347,1.0,3.0,73,0.00,,,0.00,Wunderground v.1.15,2013-01-16 03:35:00,
2013-01-15 19:40:00,40.7,32.7,30.38,NNE,20,2.0,3.0,73,0.00,,,0.00,Wunderground v.1.15,2013-01-16 03:40:00,
2013-01-15 19:46:00,40.8,32.8,30.38,NNE,15,2.0,3.0,73,0.00,,,0.00,Wunderground v.1.15,2013-01-16 03:46:00,
2013-01-15 19:52:00,40.9,32.9,30.38,North,10,2.0,3.0,73,0.00,,,0.00,Wunderground v.1.15,2013-01-16 03:52:00,
2013-01-15 19:57:00,40.9,32.9,30.37,North,3,2.0,3.0,73,0.00,,,0.00,Wunderground v.1.15,2013-01-16 03:57:00,
2013-01-15 20:03:00,40.7,32.7,30.37,NNW,347,2.0,3.0,73,0.00,,,0.00,Wunderground v.1.15,2013-01-16 04:03:00,
2013-01-15 20:09:00,40.3,32.7,30.37,North,356,2.0,3.0,74,0.00,,,0.00,Wunderground v.1.15,2013-01-16 04:09:00,
2013-01-15 20:14:00,39.9,32.6,30.37,North,359,2.0,3.0,75,0.00,,,0.00,Wunderground v.1.15,2013-01-16 04:14:00,
2013-01-15 20:19:00,40.0,32.4,30.37,North,6,2.0,3.0,74,0.00,,,0.00,Wunderground v.1.15,2013-01-16 04:19:00,
2013-01-15 20:24:00,39.7,32.4,30.38,North,6,2.0,3.0,75,0.00,,,0.00,Wunderground v.1.15,2013-01-16 04:24:00,
2013-01-15 20:30:00,39.6,32.7,30.38,North,349,2.0,3.0,76,0.00,,,0.00,Wunderground v.1.15,2013-01-16 04:30:00,
2013-01-15 20:36:00,39.3,32.7,30.38,NNW,347,2.0,3.0,77,0.00,,,0.00,Wunderground v.1.15,2013-01-16 04:36:00,
2013-01-15 20:41:00,39.0,32.4,30.38,NNW,343,2.0,3.0,77,0.00,,,0.00,Wunderground v.1.15,2013-01-16 04:41:00,
2013-01-15 20:47:00,38.8,32.2,30.38,NNW,345,2.0,3.0,77,0.00,,,0.00,Wunderground v.1.15,2013-01-16 04:47:00,
2013-01-15 20:52:00,38.5,32.2,30.38,North,350,2.0,3.0,78,0.00,,,0.00,Wunderground v.1.15,2013-01-16 04:52:00,
2013-01-15 20:59:00,38.1,32.2,30.38,NNW,346,2.0,3.0,79,0.00,,,0.00,Wunderground v.1.15,2013-01-16 04:59:00,
2013-01-15 21:00:00,38.0,32.1,30.38,NNW,346,2.0,3.0,79,0.00,,,0.00,Wunderground v.1.15,2013-01-16 05:00:00,
2013-01-15 21:01:00,38.0,32.1,30.38,NNW,346,2.0,3.0,79,0.00,,,0.00,Wunderground v.1.15,2013-01-16 05:01:00,
2013-01-15 21:03:00,37.9,32.0,30.38,NNW,346,2.0,3.0,79,0.00,,,0.00,Wunderground v.1.15,2013-01-16 05:03:00,
2013-01-15 21:05:00,37.9,32.0,30.38,NNW,347,2.0,3.0,79,0.00,,,0.00,Wunderground v.1.15,2013-01-16 05:05:00,
2013-01-15 21:10:00,37.7,31.8,30.38,NNW,345,2.0,3.0,79,0.00,,,0.00,Wunderground v.1.15,2013-01-16 05:10:00,
2013-01-15 21:15:00,37.7,31.8,30.38,NNW,345,2.0,3.0,79,0.00,,,0.00,Wunderground v.1.15,2013-01-16 05:15:00,
2013-01-15 21:21:00,37.4,31.8,30.37,NNW,345,1.0,3.0,80,0.00,,,0.00,Wunderground v.1.15,2013-01-16 05:21:00,
2013-01-15 21:26:00,37.3,31.7,30.37,NNW,345,1.0,3.0,80,0.00,,,0.00,Wunderground v.1.15,2013-01-16 05:26:00,
2013-01-15 21:31:00,37.2,31.9,30.37,NNW,345,0.0,3.0,81,0.00,,,0.00,Wunderground v.1.15,2013-01-16 05:31:00,
2013-01-15 21:36:00,37.1,31.8,30.37,NNW,345,1.0,3.0,81,0.00,,,0.00,Wunderground v.1.15,2013-01-16 05:36:00,
2013-01-15 21:42:00,36.9,31.9,30.37,NNW,345,1.0,3.0,82,0.00,,,0.00,Wunderground v.1.15,2013-01-16 05:42:00,
2013-01-15 21:47:00,36.8,31.8,30.37,NNW,345,1.0,3.0,82,0.00,,,0.00,Wunderground v.1.15,2013-01-16 05:47:00,
2013-01-15 21:52:00,36.7,32.0,30.37,NNW,345,1.0,3.0,83,0.00,,,0.00,Wunderground v.1.15,2013-01-16 05:52:00,
2013-01-15 21:58:00,36.5,31.8,30.38,NNW,345,1.0,3.0,83,0.00,,,0.00,Wunderground v.1.15,2013-01-16 05:58:00,
2013-01-15 22:04:00,36.4,31.4,30.38,NNW,345,1.0,3.0,82,0.00,,,0.00,Wunderground v.1.15,2013-01-16 06:04:00,
2013-01-15 22:09:00,36.3,31.6,30.37,NNW,345,1.0,3.0,83,0.00,,,0.00,Wunderground v.1.15,2013-01-16 06:09:00,
2013-01-15 22:15:00,36.3,31.6,30.37,NNW,345,1.0,3.0,83,0.00,,,0.00,Wunderground v.1.15,2013-01-16 06:15:00,
2013-01-15 22:20:00,36.3,31.6,30.37,NNW,345,1.0,3.0,83,0.00,,,0.00,Wunderground v.1.15,2013-01-16 06:20:00,
2013-01-15 22:25:00,36.2,31.5,30.37,NNW,345,1.0,3.0,83,0.00,,,0.00,Wunderground v.1.15,2013-01-16 06:25:00,
2013-01-15 22:30:00,36.1,31.4,30.37,NNW,345,1.0,3.0,83,0.00,,,0.00,Wunderground v.1.15,2013-01-16 06:30:00,
2013-01-15 22:36:00,36.0,31.3,30.37,NNW,340,1.0,3.0,83,0.00,,,0.00,Wunderground v.1.15,2013-01-16 06:36:00,
2013-01-15 22:41:00,35.8,31.1,30.37,NNW,341,1.0,3.0,83,0.00,,,0.00,Wunderground v.1.15,2013-01-16 06:41:00,
2013-01-15 22:46:00,35.8,31.4,30.37,NNW,340,1.0,3.0,84,0.00,,,0.00,Wunderground v.1.15,2013-01-16 06:46:00,
2013-01-15 22:52:00,36.2,31.5,30.37,NNW,340,1.0,3.0,83,0.00,,,0.00,Wunderground v.1.15,2013-01-16 06:52:00,
2013-01-15 22:57:00,36.1,31.4,30.37,NNW,340,1.0,3.0,83,0.00,,,0.00,Wunderground v.1.15,2013-01-16 06:57:00,
2013-01-15 23:03:00,36.2,31.2,30.38,NNW,340,1.0,3.0,82,0.00,,,0.00,Wunderground v.1.15,2013-01-16 07:03:00,
2013-01-15 23:09:00,36.1,31.1,30.37,NNW,347,1.0,3.0,82,0.00,,,0.00,Wunderground v.1.15,2013-01-16 07:09:00,
2013-01-15 23:14:00,36.2,31.2,30.37,North,3,2.0,3.0,82,0.00,,,0.00,Wunderground v.1.15,2013-01-16 07:14:00,
2013-01-15 23:20:00,36.0,31.0,30.38,North,1,2.0,2.0,82,0.00,,,0.00,Wunderground v.1.15,2013-01-16 07:20:00,
2013-01-15 23:26:00,35.8,31.1,30.38,NNW,347,2.0,3.0,83,0.00,,,0.00,Wunderground v.1.15,2013-01-16 07:26:00,
2013-01-15 23:31:00,35.7,31.0,30.38,North,349,2.0,3.0,83,0.00,,,0.00,Wunderground v.1.15,2013-01-16 07:31:00,
2013-01-15 23:37:00,35.6,30.9,30.38,North,349,2.0,3.0,83,0.00,,,0.00,Wunderground v.1.15,2013-01-16 07:37:00,
2013-01-15 23:42:00,35.8,31.1,30.38,NNE,20,2.0,3.0,83,0.00,,,0.00,Wunderground v.1.15,2013-01-16 07:42:00,
2013-01-15 23:48:00,36.1,30.8,30.38,NW,321,2.0,3.0,81,0.00,,,0.00,Wunderground v.1.15,2013-01-16 07:48:00,
2013-01-15 23:53:00,35.7,30.7,30.38,NW,321,2.0,3.0,82,0.00,,,0.00,Wunderground v.1.15,2013-01-16 07:53:00,
2013-01-15 23:59:00,35.4,30.5,30.38,NW,321,1.0,3.0,82,0.00,,,0.00,Wunderground v.1.15,2013-01-16 07:59:00,